Location: Prairie Dale
(45.6972°N, 104.5033°W)
Time: 15:32:45
(UTC+00:00)

Envisat - Pass Details

Date: 31 January 2022
Orbit: 764 x 765 km, 98.2° (Epoch: 15 May)

Event Time Altitude Azimuth Distance (km) Brightness Sun altitude
Rises 12:52:17 0° 4° (N) 3,242 6.2 -15.6°
Reaches altitude 10° 12:54:48 10° 355° (N) 2,312 5.3 -15.1°
Maximum altitude 12:59:14 31° 294° (WNW) 1,315 3.7 -14.4°
Drops below altitude 10° 13:03:40 10° 233° (SW) 2,300 5.1 -13.6°
Sets 13:06:10 0° 224° (SW) 3,222 5.9 -13.2°
